Location: Taipo
(41.0000°S, 175.9500°E)
Time: 08:40:42
(UTC+00:00)

NOSS 3-3 (A) - Visible Passes

Search period start: 24 July 2024 00:00
Search period end: 03 August 2024 00:00
Orbit: 738 x 1473 km, 63.4° (Epoch: 26 June)

Date Brightness Start Highest point End Pass type
(mag) Time Alt. Az. Time Alt. Az. Time Alt. Az.
24 Jul 4.9 07:33:22 10° N 07:41:27 47° ENE 07:41:27 47° ENE visible
24 Jul 6.0 09:24:24 10° WNW 09:28:57 31° WNW 09:28:57 31° WNW visible
24 Jul 6.6 15:17:54 12° ESE 15:17:54 12° ESE 15:18:25 10° E visible
24 Jul 3.6 17:05:22 71° SSW 17:06:03 88° ESE 17:11:24 10° NE visible
24 Jul 5.5 18:53:41 10° W 18:55:35 12° WNW 18:57:25 10° WNW visible
25 Jul 5.4 06:49:28 10° NNE 06:56:57 31° ENE 06:58:56 28° E visible
25 Jul 5.0 08:38:48 10° NW 08:46:26 62° W 08:46:26 62° W visible
25 Jul 7.1 10:33:40 10° W 10:33:56 11° W 10:33:56 11° W visible
25 Jul 4.8 16:22:35 41° E 16:22:35 41° E 16:26:18 10° NE visible
25 Jul 4.9 18:10:04 21° W 18:11:10 22° WNW 18:15:12 10° NNW visible
26 Jul 5.9 06:06:25 10° NNE 06:12:15 20° ENE 06:16:22 14° ESE visible
26 Jul 4.5 07:53:36 10° NNW 08:02:34 84° ENE 08:03:51 68° SE visible
26 Jul 6.4 09:47:03 10° W 09:51:21 24° WSW 09:51:21 24° WSW visible
26 Jul 6.2 15:39:52 15° ENE 15:39:52 15° ENE 15:40:49 10° ENE visible
26 Jul 4.3 17:27:21 37° NW 17:27:21 37° NW 17:31:29 10° N visible
27 Jul 4.7 07:08:51 10° NNW 07:17:34 59° ENE 07:21:11 35° ESE visible
27 Jul 5.5 09:00:49 10° WNW 09:08:40 41° SW 09:08:40 41° SW visible
27 Jul 5.0 16:44:41 29° NNE 16:44:41 29° NNE 16:47:07 10° NNE visible
28 Jul 5.2 06:24:37 10° N 06:32:42 39° ENE 06:38:25 17° SE visible
28 Jul 5.1 08:14:58 10° NW 08:23:39 57° SW 08:25:54 45° S visible
28 Jul 6.7 10:10:38 10° WSW 10:13:22 16° SW 10:13:22 16° SW visible
28 Jul 6.2 16:02:04 11° NE 16:02:04 11° NE 16:02:16 10° NE visible
28 Jul 5.7 17:49:33 11° NW 17:49:33 11° NW 17:49:48 10° NW visible
29 Jul 5.7 05:41:01 10° NNE 05:47:55 26° ENE 05:54:23 10° ESE visible
29 Jul 4.7 07:29:32 10° NW 07:38:29 81° SW 07:43:02 30° SSE visible
29 Jul 6.2 09:23:49 10° W 09:30:30 25° SW 09:30:30 25° SW visible
30 Jul 4.7 06:44:31 10° NNW 06:53:25 73° ENE 07:00:04 16° SE visible
30 Jul 5.8 08:37:21 10° WNW 08:45:02 34° SW 08:47:31 29° S visible
30 Jul 7.1 10:34:53 10° SW 10:34:59 10° SW 10:34:59 10° SW visible
31 Jul 5.0 05:59:58 10° N 06:08:28 50° ENE 06:16:09 10° SE visible
31 Jul 5.4 07:51:17 10° WNW 07:59:40 47° SW 08:04:28 23° SSE visible
31 Jul 6.6 09:47:41 10° WSW 09:51:54 17° SSW 09:51:54 17° SSW visible
01 Aug 5.0 07:05:36 10° NW 07:14:25 66° SW 07:21:19 14° SSE visible
01 Aug 6.3 09:00:42 10° W 09:06:49 22° SSW 09:08:46 20° SSW visible
02 Aug 4.7 06:20:20 10° NNW 06:29:18 88° NE 06:37:15 10° SE visible
02 Aug 6.1 08:14:01 10° W 08:21:11 29° SW 08:25:32 18° S visible
02 Aug 6.9 10:12:03 10° SW 10:12:59 11° SSW 10:12:59 11° SSW visible
